Find Starlink 11544

NORAD ID: 62984 Int'l Des: 2025-031 Owner: SPXS Country: US Constellation: starlink operational
LEOCIRCULAR

当前视图

正在加载3D地球...

About Starlink 11544

Starlink 11544 (NORAD 62984) is a starlink constellation satellite (v2 mini d2c) launched Feb 11, 2025 by SPXS of US. It operates in LEO, CIRCULAR orbit with a mass of 960.00 kg.

关于 Starlink 11544

正在加载描述...

即将过境

Passes for default location (London). Set your location on the main map for personalized predictions.

高度历史

Loading altitude history...

两行轨道根数

1 62984U 25031D 26171.41668980 -.00176485 00000-0 -13961-2 0 9994
2 62984 43.0008 102.0608 0001658 251.8445 9.1460 15.70926864 6017
Epoch: Jun 20, 2026 • Age: 8 hours

当前状态

高度 361.7 km
速度 7.69 km/s
星下点 -23.29°S, 104.72°W
发射日期 Feb 11, 2025
运行时间 1.3 years
类型 internet

技术详情

分类 Payload
质量 960.00 kg
干质量 910.00 kg
总质量 960.00 kg
长度 0.30 m
直径 4.10 m
跨度 29.00 m
形状 Box + pan
制造商 SPXS
平台类型 Starlink V2MD
阶段状态 In Orbit
所有者/国家 SPXS/US

Most Searched